Weather Roundup
Issued by NWS Springfield, MO

Home | Current Version | Previous Version | Text Only | Print | Product List | Glossary On
Versions: 1 2 3 4 5 6 7 8 9 10 11 12 13 14 15 16 17 18 19 20 21 22 23 24 25 26 27 28 29 30 31 32 33 34 35 36 37 38 39 40 41 42 43 44 45 46 47 48 49 50
000
NZUS99 KSGF 302007
HRRSGF

HOURLY WEATHER
NATIONAL WEATHER SERVICE SPRINGFIELD MO
300 PM CDT TUE SEP 30 2014

......SGF CWA......

CITY           SKY/WX    TMP DP  RH WIND       PRES   REMARKS
SPRINGFIELD    MOSUNNY   81  56  42 S6        29.89F
JOPLIN         MOSUNNY   84  59  42 S14G21    29.86F
WEST PLAINS    PTSUNNY   82  52  35 CALM      29.93F
ROLLA          MOSUNNY   82  53  36 SW7       29.88F
OSAGE BEACH    PTSUNNY   84  55  37 S3        29.87F
BRANSON        PTSUNNY   86  54  32 S8        29.91F

......SURROUNDING SGF CWA......

CITY           SKY/WX    TMP DP  RH WIND       PRES   REMARKS
CHANUTE        MOSUNNY   82  60  47 S15G23    29.82F
PARSONS        SUNNY     84  62  47 S10G22    29.84F
COFFEYVILLE    SUNNY     83  63  50 S14       29.82F
EMPORIA        PTSUNNY   82  62  50 S20       29.80F
GROVE OK       MOSUNNY   86  61  42 S10       29.86F
ROGERS AR      MOSUNNY   81  57  43 S14       29.90F
SILOAM SPRINGS MOSUNNY   82  61  47 SW15      29.89F
HARRISON AR    MOSUNNY   81  57  43 S6        29.91F
NEAR YELLVILLE SUNNY     84  52  32 SE5       29.90F

......KANSAS AND MISSOURI......

CITY           SKY/WX    TMP DP  RH WIND       PRES   REMARKS
KANSAS CTY INT MOSUNNY   82  58  43 S17       29.82F
DOWNTOWN KC    MOSUNNY   86  57  37 S14G22    29.81F
COLUMBIA       MOSUNNY   84  53  34 CALM      29.88F
SEDALIA        SUNNY     86  54  33 S13       29.87F
ST JOSEPH      MOSUNNY   84  57  39 S17       29.80F
ST LOUIS       MOSUNNY   85  55  35 E3        29.90F
SPIRIT OF STL  MOSUNNY  N/A N/A N/A CALM      29.88F
KIRKSVILLE     SUNNY     73  62  68 E10       29.90F
WICHITA        PTSUNNY   87  59  38 S20       29.75F
TOPEKA         PTSUNNY   87  58  37 S16G25    29.79F
OLATHE         MOSUNNY   82  58  43 S16G22    29.83F

......TENNESSEE......

CITY           SKY/WX    TMP DP  RH WIND       PRES   REMARKS
MEMPHIS        MOSUNNY   88  57  34 CALM      29.88F
NASHVILLE      MOSUNNY   87  50  27 NE10      29.90F

......ARKANSAS.......

CITY           SKY/WX    TMP DP  RH WIND       PRES   REMARKS
FAYETTEVILLE   MOSUNNY   80  59  48 S12       29.90F
FT SMITH       PTSUNNY   83  60  45 SE7       29.86F
LITTLE ROCK    PTSUNNY   88  55  32 E5        29.87F

......OKLAHOMA.......

CITY           SKY/WX    TMP DP  RH WIND       PRES   REMARKS
TULSA          PTSUNNY   87  63  44 S14G25    29.80F
PONCA CITY     PTSUNNY   87  60  40 S13G24    29.77F
MCALESTER      PTSUNNY   85  63  47 VRB7      29.84F
OKLAHOMA CITY  MOSUNNY   87  56  34 S16G24    29.79F

......IOWA............

CITY           SKY/WX    TMP DP  RH WIND       PRES   REMARKS
DES MOINES     MOSUNNY   67  58  72 E13       29.89F HAZE

......ILLINOIS........

CITY           SKY/WX    TMP DP  RH WIND       PRES   REMARKS
QUINCY         SUNNY     71  59  65 E8        29.92F
CHICAGO        PTSUNNY   55  46  71 NE13      30.03S



USA.gov is the U.S. government's official web portal to all federal, state and local government web resources and services.